Volver al catálogo

STARLINK DEPLOYMENT RAIL

ActivoSSO
NORAD 47423·DEBRIS·🇺🇸 United States
Este nombre de satélite aún no ha sido confirmado por fuentes oficiales.

Lanzado Jan 24, 2021 desde Cape Canaveral Space Force Station

Loading…

Próximos Pases (próximas 24 horas)

TLE

ActualizadoSource: Space-Track

Época: Sep 14, 2026, 13:18 UTC

1 47423U 21006L   26257.55484671  .00004474  00000-0  13287-3 0  9994
2 47423  97.2132 302.2761 0009566 225.4923 134.5540 15.35251168313376

Sigue STARLINK DEPLOYMENT RAIL en tiempo real con AllMySat

Download on the App Store